User: anonymous   Login
Location: Mentone
(34.5413°N, 85.5351°W)
Time: 08:11:06
(UTC-06:00)
Language:

Cosmos 2026 Rocket - Orbit

View from above orbital plane
View from above orbital plane
View from above satellite
View from above satellite

Ground track
Ground track

The orbit data is extracted from the following two-line orbital elements,

1 20046U 89042B   16337.91863541 +.00000084 +00000-0 +68846-4 0  9990
2 20046 082.9384 089.4677 0040838 258.4332 209.1364 13.78084785382019
Epoch (UTC): 02 December 2016 22:02:50
Eccentricity: 0.0040838
inclination: 82.9384°
perigee height: 940 km
apogee height: 1001 km
right ascension of ascending node: 89.4677°
argument of perigee: 258.4332°
revolutions per day: 13.78084785
mean anomaly at epoch: 209.1364°
orbit number at epoch: 38201

The dashed part of the orbit path shows where the satellite is in the earth's shadow,  

DLR